This is the latest recevied weather packets stored in our database for station/object OE3UKW. If no packets are shown the sender has not sent any weather packets the latest 1 day(s).
| Time | Temp. | Humidity | Pressure | Rain* | Wind** | Luminosity | Snow |
|---|---|---|---|---|---|---|---|
| 1778005270 | 20° C | 40% | 1006.5 hPa | 0 mm | 4.47 m/s, 166° | 0 W/m² | - |
| 1778004670 | 20° C | 40% | 1006.3 hPa | 0 mm | 6.26 m/s, 154° | 0 W/m² | - |
| 1778004070 | 20.56° C | 39% | 1006.3 hPa | 0 mm | 5.81 m/s, 159° | 11 W/m² | - |
| 1778003470 | 20.56° C | 38% | 1006.3 hPa | 0 mm | 4.92 m/s, 157° | 18 W/m² | - |
| 1778002871 | 20.56° C | 38% | 1006.3 hPa | 0 mm | 4.92 m/s, 159° | 30 W/m² | - |
| 1778002285 | 21.11° C | 38% | 1006.3 hPa | 0 mm | 4.47 m/s, 164° | 40 W/m² | - |
| 1778001670 | 21.11° C | 37% | 1006.3 hPa | 0 mm | 4.92 m/s, 138° | 48 W/m² | - |
| 1778001071 | 21.11° C | 37% | 1006.2 hPa | 0 mm | 5.81 m/s, 173° | 49 W/m² | - |
| 1778000470 | 21.67° C | 36% | 1006.3 hPa | 0 mm | 5.36 m/s, 144° | 51 W/m² | - |
| 1777999870 | 21.67° C | 35% | 1006.3 hPa | 0 mm | 7.6 m/s, 124° | 56 W/m² | - |
| 1777999270 | 22.22° C | 34% | 1006.5 hPa | 0 mm | 4.02 m/s, 156° | 53 W/m² | - |
| 1777998670 | 22.78° C | 33% | 1006.6 hPa | 0 mm | 7.15 m/s, 148° | 66 W/m² | - |
| 1777998070 | 23.33° C | 32% | 1006.5 hPa | 0 mm | 6.71 m/s, 134° | 197 W/m² | - |
| 1777997470 | 23.89° C | 31% | 1006.5 hPa | 0 mm | 4.92 m/s, 160° | 261 W/m² | - |
| 1777996870 | 24.44° C | 30% | 1006.5 hPa | 0 mm | 7.6 m/s, 182° | 279 W/m² | - |
| 1777996270 | 24.44° C | 28% | 1006.4 hPa | 0 mm | 8.49 m/s, 187° | 332 W/m² | - |
| 1777995670 | 25° C | 27% | 1006.5 hPa | 0 mm | 8.49 m/s, 191° | 225 W/m² | - |
| 1777995070 | 25.56° C | 26% | 1006.4 hPa | 0 mm | 11.62 m/s, 163° | 347 W/m² | - |
| 1777994470 | 26.11° C | 26% | 1006.4 hPa | 0 mm | 9.39 m/s, 198° | 377 W/m² | - |
| 1777993870 | 26.11° C | 26% | 1006.3 hPa | 0 mm | 8.05 m/s, 171° | 396 W/m² | - |
| 1777993270 | 26.67° C | 24% | 1006.3 hPa | 0 mm | 8.49 m/s, 165° | 417 W/m² | - |
| 1777992670 | 27.22° C | 24% | 1006.3 hPa | 0 mm | 7.15 m/s, 197° | 449 W/m² | - |
| 1777992070 | 27.22° C | 22% | 1006.3 hPa | 0 mm | 7.6 m/s, 180° | 480 W/m² | - |
| 1777991470 | 27.78° C | 23% | 1006.5 hPa | 0 mm | 10.73 m/s, 180° | 509 W/m² | - |
| 1777990870 | 27.78° C | 23% | 1006.5 hPa | 0 mm | 9.39 m/s, 163° | 534 W/m² | - |
* Rain latest hour (hover to see other rain measurements)
** Current wind speed in m/s (hover to see current wind gust speed)